| Date | Time | Temp. (oF) | Dew Point (oF) | Rel. Hum. (%) | Press. (in.) | Wind Dir. | Wind Speed (mph) | Hourly Rainfall (in.) |
|
|---|---|---|---|---|---|---|---|---|---|
| 1 | 12/26 | 00:00 | 30 | 26 | 87 | 29.63 | WNW | 10 | 0.00 |
| 2 | 12/25 | 23:00 | 30 | 28 | 95 | 29.58 | WNW | 15 | 0.00 |
| 3 | 12/25 | 22:00 | 31 | 29 | 94 | 29.53 | WNW | 9 | 0.00 |
| 4 | 12/25 | 21:00 | 32 | 32 | 100 | 29.48 | WNW | 17 | 0.00 |
| 5 | 12/25 | 20:00 | 32 | 32 | 100 | 29.43 | WNW | 6 | 0.00 |
| 6 | 12/25 | 19:00 | 32 | 32 | 100 | 29.39 | WNW | 4 | 0.00 |
| 7 | 12/25 | 18:00 | 32 | 32 | 100 | 29.36 | WSW | 7 | 0.00 |
| 8 | 12/25 | 17:00 | 31 | 31 | 100 | 29.35 | W | 5 | 0.00 |
| 9 | 12/25 | 16:00 | 31 | 31 | 100 | 29.33 | NW | 6 | 0.08 |
| 10 | 12/25 | 15:00 | 31 | 31 | 100 | 29.29 | WNW | 5 | 0.08 |
| 11 | 12/25 | 14:00 | 31 | 31 | 100 | 29.28 | NW | 6 | 0.05 |
| 12 | 12/25 | 13:00 | 31 | 31 | 100 | 29.25 | NW | 3 | 0.06 |
| 13 | 12/25 | 12:00 | 31 | 31 | 100 | 29.26 | NW | 7 | 0.02 |
| 14 | 12/25 | 11:00 | 31 | 31 | 100 | 29.33 | NNW | 8 | 0.03 |
| 15 | 12/25 | 10:00 | 32 | 32 | 100 | 29.39 | NW | 7 | 0.15 |
| 16 | 12/25 | 09:00 | 32 | 32 | 100 | 29.43 | NW | 5 | 0.30 |
| 17 | 12/25 | 08:00 | 32 | 32 | 100 | 29.42 | NE | 5 | 0.15 |
| 18 | 12/25 | 07:00 | 31 | 31 | 100 | 29.47 | ENE | 4 | 0.03 |
| 19 | 12/25 | 06:00 | 31 | 31 | 100 | 29.52 | NE | 12 | 0.00 |
| 20 | 12/25 | 05:00 | 30 | 30 | 100 | 29.57 | NE | 4 | 0.01 |
| 21 | 12/25 | 04:00 | 30 | 30 | 100 | 29.65 | NE | 6 | 0.00 |
| 22 | 12/25 | 03:00 | 29 | 28 | 100 | 29.71 | ENE | 7 | 0.00 |
| 23 | 12/25 | 02:00 | 29 | 28 | 100 | 29.75 | NE | 7 | 0.00 |
| 24 | 12/25 | 01:00 | 28 | 27 | 100 | 29.78 | NE | 5 | 0.01 |